• în Republica Moldova
  • Lista ţărilor
  • Pe 7 zile
  • Temperatura apei
  • Hartă satelitară
  • Meteo pe hartă
  • Widget-uri
  • user-avatar
    Intrare

    Meteo pe oră la Orsino

    Astăzi, 17 August, Vineri

    Timp Temperatura Precipitaţii Vânt Presiune Umiditate
    00:00 +14°C° 0 mm 1 m/s 758 mmHg 91%
    01:00 +14°C° 0 mm 1 m/s 758 mmHg 92%
    02:00 +12°C° 0 mm 0 m/s 759 mmHg 95%
    03:00 +13°C° 0 mm 1 m/s 759 mmHg 95%
    04:00 +13°C° 0 mm 1 m/s 759 mmHg 95%
    05:00 +13°C° 0 mm 1 m/s 759 mmHg 96%
    06:00 +15°C° 0 mm 1 m/s 759 mmHg 88%
    07:00 +18°C° 0 mm 1 m/s 759 mmHg 81%
    08:00 +20°C° 0 mm 1 m/s 759 mmHg 71%
    09:00 +20°C° 0 mm 2 m/s 759 mmHg 66%
    10:00 +21°C° 0 mm 2 m/s 759 mmHg 60%
    11:00 +24°C° 0 mm 2 m/s 759 mmHg 55%
    12:00 +24°C° 0 mm 2 m/s 759 mmHg 53%
    13:00 +25°C° 0 mm 2 m/s 759 mmHg 50%
    14:00 +26°C° 0 mm 2 m/s 758 mmHg 48%
    15:00 +25°C° 0 mm 2 m/s 758 mmHg 51%
    16:00 +25°C° 0 mm 2 m/s 758 mmHg 54%
    17:00 +25°C° 0 mm 2 m/s 758 mmHg 57%
    18:00 +23°C° 0 mm 2 m/s 758 mmHg 63%
    19:00 +21°C° 0 mm 1 m/s 757 mmHg 70%
    20:00 +19°C° 0 mm 1 m/s 757 mmHg 77%
    21:00 +18°C° 0 mm 1 m/s 757 mmHg 79%
    22:00 +17°C° 0 mm 2 m/s 758 mmHg 82%
    23:00 +16°C° 0 mm 2 m/s 758 mmHg 85%

    Mâine, 18 August, Sâmbătă

    Timp Temperatura Precipitaţii Vânt Presiune Umiditate
    00:00 +16°C° 0 mm 2 m/s 758 mmHg 87%
    01:00 +15°C° 0 mm 2 m/s 758 mmHg 90%
    02:00 +15°C° 0 mm 2 m/s 758 mmHg 92%
    03:00 +15°C° 0 mm 2 m/s 758 mmHg 94%
    04:00 +15°C° 0 mm 2 m/s 758 mmHg 95%
    05:00 +15°C° 0 mm 2 m/s 758 mmHg 96%
    06:00 +16°C° 0 mm 2 m/s 758 mmHg 89%
    07:00 +18°C° 0 mm 2 m/s 758 mmHg 83%
    08:00 +20°C° 0 mm 2 m/s 758 mmHg 76%
    09:00 +21°C° 0 mm 3 m/s 758 mmHg 70%
    10:00 +24°C° 0 mm 3 m/s 758 mmHg 65%
    11:00 +26°C° 0 mm 3 m/s 757 mmHg 59%
    12:00 +26°C° 0,1 mm 3 m/s 757 mmHg 59%
    13:00 +27°C° 0,1 mm 3 m/s 757 mmHg 59%
    14:00 +27°C° 0,1 mm 3 m/s 756 mmHg 58%
    15:00 +26°C° 0,3 mm 3 m/s 756 mmHg 63%
    16:00 +26°C° 0,3 mm 3 m/s 756 mmHg 69%
    17:00 +25°C° 0,3 mm 2 m/s 756 mmHg 74%
    18:00 +24°C° 0 mm 2 m/s 756 mmHg 79%
    19:00 +21°C° 0 mm 2 m/s 756 mmHg 85%
    20:00 +20°C° 0 mm 2 m/s 756 mmHg 91%
    21:00 +19°C° 0 mm 2 m/s 756 mmHg 92%
    22:00 +19°C° 0 mm 2 m/s 756 mmHg 94%
    23:00 +18°C° 0 mm 2 m/s 756 mmHg 95%

    Poimâine, 19 August, Duminică

    Timp Temperatura Precipitaţii Vânt Presiune Umiditate
    00:00 +18°C° 0 mm 2 m/s 755 mmHg 95%
    01:00 +18°C° 0 mm 2 m/s 755 mmHg 96%
    02:00 +17°C° 0 mm 2 m/s 755 mmHg 96%
    03:00 +17°C° 0 mm 2 m/s 755 mmHg 97%
    04:00 +17°C° 0 mm 2 m/s 755 mmHg 97%
    05:00 +17°C° 0 mm 2 m/s 755 mmHg 97%
    06:00 +18°C° 0 mm 2 m/s 755 mmHg 94%
    07:00 +19°C° 0 mm 3 m/s 755 mmHg 90%
    08:00 +20°C° 0 mm 3 m/s 755 mmHg 87%
    09:00 +21°C° 0,3 mm 3 m/s 754 mmHg 84%
    10:00 +22°C° 0,3 mm 3 m/s 754 mmHg 81%
    11:00 +24°C° 0,3 mm 3 m/s 754 mmHg 77%
    12:00 +25°C° 0,6 mm 3 m/s 754 mmHg 73%
    13:00 +25°C° 0,6 mm 3 m/s 753 mmHg 68%
    14:00 +25°C° 0,6 mm 3 m/s 753 mmHg 63%
    15:00 +25°C° 0,1 mm 3 m/s 753 mmHg 62%
    16:00 +25°C° 0,1 mm 3 m/s 753 mmHg 60%
    17:00 +24°C° 0,1 mm 2 m/s 753 mmHg 58%
    18:00 +23°C° 0 mm 2 m/s 753 mmHg 64%
    19:00 +20°C° 0 mm 2 m/s 753 mmHg 70%
    20:00 +19°C° 0 mm 2 m/s 753 mmHg 75%
    21:00 +18°C° 0 mm 2 m/s 753 mmHg 80%
    22:00 +18°C° 0 mm 2 m/s 753 mmHg 84%
    23:00 +19°C° 0 mm 1 m/s 753 mmHg 88%

    20 August, Luni

    Timp Temperatura Precipitaţii Vânt Presiune Umiditate
    00:00 +19°C° 0,1 mm 1 m/s 753 mmHg 90%
    01:00 +18°C° 0,1 mm 1 m/s 753 mmHg 93%
    02:00 +18°C° 0,1 mm 1 m/s 753 mmHg 95%
    03:00 +17°C° 0,1 mm 2 m/s 753 mmHg 96%
    04:00 +16°C° 0,1 mm 2 m/s 753 mmHg 97%
    05:00 +16°C° 0,1 mm 2 m/s 753 mmHg 98%
    06:00 +17°C° 0 mm 2 m/s 753 mmHg 94%
    07:00 +18°C° 0 mm 2 m/s 753 mmHg 90%
    08:00 +19°C° 0 mm 3 m/s 753 mmHg 87%
    09:00 +20°C° 0,1 mm 3 m/s 753 mmHg 81%
    10:00 +21°C° 0,1 mm 3 m/s 753 mmHg 76%
    11:00 +22°C° 0,1 mm 3 m/s 753 mmHg 70%
    12:00 +22°C° 0,5 mm 3 m/s 753 mmHg 75%
    13:00 +21°C° 0,5 mm 3 m/s 753 mmHg 79%
    14:00 +21°C° 0,5 mm 3 m/s 753 mmHg 83%
    15:00 +21°C° 0,6 mm 3 m/s 753 mmHg 85%
    16:00 +21°C° 0,6 mm 2 m/s 752 mmHg 87%
    17:00 +20°C° 0,6 mm 2 m/s 752 mmHg 89%
    18:00 +19°C° 0,1 mm 2 m/s 752 mmHg 92%
    19:00 +19°C° 0,1 mm 1 m/s 752 mmHg 94%
    20:00 +19°C° 0,1 mm 1 m/s 752 mmHg 96%
    21:00 +18°C° 0,1 mm 1 m/s 752 mmHg 97%
    22:00 +18°C° 0,1 mm 1 m/s 752 mmHg 97%
    23:00 +18°C° 0,1 mm 1 m/s 752 mmHg 97%

    21 August, Marţi

    Timp Temperatura Precipitaţii Vânt Presiune Umiditate
    00:00 +18°C° 0,4 mm 1 m/s 752 mmHg 98%
    01:00 +18°C° 0,4 mm 1 m/s 752 mmHg 98%
    02:00 +18°C° 0,4 mm 1 m/s 752 mmHg 98%
    03:00 +18°C° 0,5 mm 1 m/s 752 mmHg 98%
    04:00 +16°C° 0,5 mm 1 m/s 752 mmHg 98%
    05:00 +16°C° 0,5 mm 2 m/s 752 mmHg 98%
    06:00 +17°C° 0,1 mm 2 m/s 752 mmHg 96%
    07:00 +17°C° 0,1 mm 2 m/s 752 mmHg 94%
    08:00 +18°C° 0,1 mm 2 m/s 752 mmHg 92%
    09:00 +19°C° 0 mm 2 m/s 752 mmHg 83%
    10:00 +20°C° 0 mm 2 m/s 752 mmHg 74%
    11:00 +23°C° 0 mm 2 m/s 752 mmHg 65%
    12:00 +23°C° 0 mm 2 m/s 751 mmHg 61%
    13:00 +24°C° 0 mm 2 m/s 751 mmHg 57%
    14:00 +24°C° 0 mm 2 m/s 751 mmHg 53%
    15:00 +23°C° 0,2 mm 1 m/s 751 mmHg 60%
    16:00 +22°C° 0,2 mm 1 m/s 750 mmHg 66%
    17:00 +22°C° 0,2 mm 1 m/s 750 mmHg 73%
    18:00 +20°C° 0,1 mm 1 m/s 750 mmHg 76%
    19:00 +19°C° 0,1 mm 1 m/s 750 mmHg 80%
    20:00 +18°C° 0,1 mm 1 m/s 750 mmHg 84%
    21:00 +18°C° 0,2 mm 1 m/s 750 mmHg 87%
    22:00 +16°C° 0,2 mm 1 m/s 750 mmHg 89%
    23:00 +16°C° 0,2 mm 1 m/s 750 mmHg 92%

    22 August, Miercuri

    Timp Temperatura Precipitaţii Vânt Presiune Umiditate
    00:00 +15°C° 0 mm 1 m/s 750 mmHg 93%
    01:00 +15°C° 0 mm 1 m/s 750 mmHg 93%
    02:00 +14°C° 0 mm 1 m/s 750 mmHg 94%
    03:00 +13°C° 0 mm 0 m/s 750 mmHg 94%
    04:00 +12°C° 0 mm 0 m/s 751 mmHg 94%
    05:00 +12°C° 0 mm 0 m/s 751 mmHg 93%
    06:00 +13°C° 0 mm 0 m/s 751 mmHg 90%
    07:00 +15°C° 0 mm 0 m/s 751 mmHg 86%
    08:00 +18°C° 0 mm 1 m/s 752 mmHg 83%
    09:00 +20°C° 0,1 mm 1 m/s 752 mmHg 77%
    10:00 +21°C° 0,1 mm 1 m/s 752 mmHg 71%
    11:00 +21°C° 0,1 mm 2 m/s 752 mmHg 64%
    12:00 +23°C° 0,1 mm 2 m/s 752 mmHg 62%
    13:00 +23°C° 0,1 mm 2 m/s 751 mmHg 59%
    14:00 +24°C° 0,1 mm 3 m/s 751 mmHg 57%
    15:00 +24°C° 0 mm 3 m/s 751 mmHg 58%
    16:00 +24°C° 0 mm 3 m/s 751 mmHg 59%
    17:00 +24°C° 0 mm 3 m/s 751 mmHg 60%
    18:00 +21°C° 0 mm 2 m/s 751 mmHg 66%
    19:00 +20°C° 0 mm 2 m/s 750 mmHg 73%
    20:00 +18°C° 0 mm 2 m/s 750 mmHg 79%
    21:00 +18°C° 0,1 mm 3 m/s 750 mmHg 80%
    22:00 +18°C° 0,1 mm 3 m/s 750 mmHg 81%
    23:00 +18°C° 0,1 mm 4 m/s 750 mmHg 82%
    Arată mai mult